Tracking 23099 objects as of 14-May-2021
HD Live streaming from Space Station
objects crossing your sky now

RADIO 8

Track RADIO 8 now!
10-day predictions
RADIO 8 is classified as:


NORAD ID: 12998
Int'l Code: 1981-120B
Perigee: 1,658.7 km
Apogee: 1,689.1 km
Inclination: 83.0 °
Period: 119.7 minutes
Semi major axis: 8044 km
RCS: 0.8671 m2 (medium)
Launch date: December 17, 1981
Source: Commonwealth of Independent States (former USSR) (CIS)
Launch site: PLESETSK MISSILE AND SPACE COMPLEX (PKMTR)

Uplink (MHz):
Downlink (MHz):
Beacon (MHz):
Mode:
Call sign:
Status: Inactive

aabbcc
Your satellite tracking list
Your tracking list is empty




NASA's NSSDC Master Catalog

Two Line Element Set (TLE):
1 12998U 81120B   21133.72552196  .00000094  00000-0  10086-2 0  9998
2 12998  82.9621  48.2675 0018924 330.6614  90.2278 12.03159066730661
Source of the keplerian elements: AFSPC